CDT,Max TemperatureF,Mean TemperatureF,Min TemperatureF,Max Dew PointF,MeanDew PointF,Min DewpointF,Max Humidity, Mean Humidity, Min Humidity, Max Sea Level PressureIn, Mean Sea Level PressureIn, Min Sea Level PressureIn, Max VisibilityMiles, Mean VisibilityMiles, Min VisibilityMiles, Max Wind SpeedMPH, Mean Wind SpeedMPH, Max Gust SpeedMPH,PrecipitationIn, CloudCover, Events, WindDirDegrees
2013-10-1,76,60,44,46,36,26,78,46,17,30.06,29.98,29.83,10,10,10,10,6,20,0.03,0,Thunderstorm,74
2013-10-2,83,64,44,54,44,38,85,57,28,29.98,29.91,29.87,10,10,10,16,3,25,0.00,1,,318
2013-10-3,55,52,48,50,47,42,94,86,59,29.90,29.85,29.82,10,6,1,12,6,16,0.07,7,Rain-Thunderstorm,18
2013-10-4,53,44,36,52,44,31,94,89,76,29.90,29.78,29.67,10,5,0,30,14,45,0.21,8,Fog-Rain-Snow-Thunderstorm,341
2013-10-5,40,37,35,35,31,28,91,77,67,30.00,29.93,29.87,10,9,3,34,27,46,0.04,8,Rain-Snow,304
2013-10-6,63,50,37,36,33,30,89,57,31,30.13,30.07,29.99,10,10,7,22,16,32,0.00,2,Rain,315
2013-10-7,79,58,37,42,36,32,88,51,18,30.12,30.01,29.89,10,10,10,14,7,20,0.00,0,,234
2013-10-8,77,62,48,41,39,35,70,44,21,29.89,29.80,29.75,10,10,10,15,9,21,0.00,0,,180
2013-10-9,72,56,41,47,43,39,91,61,33,29.91,29.87,29.79,10,10,10,12,4,17,0.00,0,,64
2013-10-10,77,59,41,57,47,39,93,65,30,29.90,29.76,29.55,10,10,4,30,7,46,0.13,1,Rain-Thunderstorm,167
2013-10-11,59,52,44,53,43,36,83,64,47,29.99,29.64,29.39,10,10,7,36,22,48,0.02,4,Rain,246
2013-10-12,63,48,35,36,32,26,88,58,26,30.26,30.16,29.99,10,10,5,12,7,10,0.00,1,,289
2013-10-13,67,52,37,43,32,26,84,49,21,30.31,30.23,30.13,10,10,7,30,10,38,0.04,3,Rain-Thunderstorm,143
2013-10-14,59,50,41,55,46,35,92,84,75,30.12,29.87,29.67,10,9,2,25,15,39,0.51,8,Rain-Thunderstorm,158
2013-10-15,42,38,34,34,32,31,88,74,68,30.19,30.10,29.95,10,10,10,31,22,44,0.00,7,,313
2013-10-16,58,46,35,33,29,20,83,59,24,30.17,30.05,29.94,10,10,10,9,7,16,0.00,3,,278
2013-10-17,48,38,28,36,30,23,84,70,47,30.13,30.04,29.94,10,10,10,29,10,34,0.00,3,,312
2013-10-18,51,38,25,31,26,22,90,67,35,30.13,30.08,30.02,10,10,10,18,5,25,0.00,3,Rain,290
2013-10-19,66,50,34,32,29,26,77,50,24,30.02,29.89,29.81,10,10,10,18,9,26,0.00,3,,278
2013-10-20,59,45,32,38,33,28,84,58,38,30.08,29.91,29.79,10,10,10,23,9,33,0.00,4,Rain,307
2013-10-21,60,46,31,39,34,26,90,66,28,30.08,30.02,29.95,10,10,10,21,6,30,0.00,4,,282
2013-10-22,60,50,41,40,37,33,88,65,39,30.10,30.05,29.98,10,10,10,24,9,33,0.00,5,,311
2013-10-23,61,50,41,40,36,34,85,64,40,30.25,30.10,30.02,10,10,10,21,7,29,0.00,5,,318
2013-10-24,46,40,33,36,32,30,91,75,60,30.38,30.32,30.25,10,10,7,8,4,,0.00,6,,101
2013-10-25,65,48,32,38,36,32,94,65,34,30.29,30.15,30.02,10,10,5,20,8,24,0.00,0,,217
2013-10-26,61,48,34,38,28,20,89,54,20,30.29,30.20,30.09,10,10,10,16,6,22,0.00,0,,307
2013-10-27,75,55,35,36,29,18,85,46,11,30.08,29.90,29.80,10,10,10,16,5,23,0.00,0,,321
2013-10-28,42,38,32,34,31,29,93,81,66,30.20,30.13,30.00,10,8,2,21,14,28,0.00,6,Rain-Snow,51
2013-10-29,36,34,32,34,33,31,95,93,91,30.16,30.06,29.98,10,4,2,12,7,16,0.02,8,Rain-Snow,20
2013-10-30,49,41,33,37,34,32,94,86,63,30.04,29.87,29.76,10,8,1,9,4,,0.00,6,,245
2013-10-31,58,45,32,35,31,26,94,66,31,29.75,29.68,29.61,10,10,7,26,8,33,0.00,1,,292